Regional Weather Roundup
Issued by NWS Cleveland, OH

Home | Current Version | Previous Version | Graphics & Text | Print | Product List | Glossary On
Versions: 1 2 3 4 5 6 7 8 9 10 11 12 13 14 15 16 17 18 19 20 21 22 23 24 25 26 27 28 29 30 31 32 33 34 35 36 37 38 39 40 41 42 43 44 45 46 47 48 49 50
000
ASUS41 KCLE 290102
RWRCLE
OHIO REGIONAL WEATHER ROUNDUP
NATIONAL WEATHER SERVICE CLEVELAND, OH
900 PM EDT MON JUL 28 2014

NOTE: "FAIR" INDICATES FEW OR NO CLOUDS BELOW 12,000 FEET WITH NO
SIGNIFICANT WEATHER AND/OR OBSTRUCTIONS TO VISIBILITY.

OHZ001>008-015>018-024>027-034-035-043-044-290200-
   NORTHWEST OHIO

CITY           SKY/WX    TMP DP  RH WIND       PRES   REMARKS
DEFIANCE       CLEAR     63  52  67 VRB6      29.99R
FINDLAY        CLOUDY    68  53  58 N6        29.95R
TOLEDO EXPRESS CLOUDY    65  52  62 N8        29.97R
TOLEDO EXEC    MOCLDY    66  49  54 N7        29.97R
LIMA           PTCLDY    65  54  67 NW16      29.98R
$$

OHZ009>014-019>023-028>033-038-089-290200-
   NORTHEAST OHIO

CITY           SKY/WX    TMP DP  RH WIND       PRES   REMARKS
CLE-HOPKINS    CLOUDY    61  52  72 N12       29.97R
CLE-LAKEFRONT  CLOUDY    62  52  69 N14       29.95R
CUY CO. ARPT   CLOUDY    61  54  77 N14       29.96R
LORAIN-ELYRIA  CLOUDY    64  53  67 NE12      29.96R
ASHTABULA      MOCLDY    58  48  69 NW9       29.94S
AKRON-CANTON   MOCLDY    60  50  69 N6        29.95R
WOOSTER        PTCLDY    59  52  77 N6        29.96S
MANSFIELD      CLOUDY    61  54  77 N5        29.97R
YOUNGSTOWN     CLOUDY    57  50  77 NW9       29.94R
$$

OHZ042-051>053-060>062-070>072-077>081-290200-
  SOUTHWEST OHIO

CITY           SKY/WX    TMP DP  RH WIND       PRES   REMARKS
CINC-COVINGTON PTCLDY    67  54  63 NW9       30.00R
CINC-LUNKEN    CLEAR     68  54  60 NW9       29.99R
HAMILTON       CLEAR     66  56  70 NW10      30.00R
DAYTON         PTCLDY    64  55  72 NW10      30.00R
WRIGHT-PAT AFB PTCLDY    66  57  71 NW10      29.98R
DAYTON GENERAL PTCLDY    66  55  67 NW13      29.98R
WILMINGTON     PTCLDY    67  54  63 NW10      29.97R
$$

OHZ036-037-039>041-045>050-054>059-063>069-073>076-082>088-290200-
  CENTRAL AND SOUTHEAST OHIO

CITY           SKY/WX    TMP DP  RH WIND       PRES   REMARKS
COLUMBUS       MOCLDY    70  52  52 N9        29.94R
OSU AIRPORT    MOCLDY    67  53  61 NW7       29.95R
BOLTON FIELD   PTCLDY    65  56  72 NW6       29.96R
RICKENBACK AFB CLOUDY    69  50  49 NW6       29.95R
NEWARK         PTCLDY    65  54  67 NW3       29.94R
MARION         CLOUDY    65  55  70 NE8       29.96R
LANCASTER      MOCLDY    63  57  81 CALM      29.95R
ZANESVILLE     CLOUDY    65  55  70 CALM      29.94R
NEW PHILLY     MOCLDY    62  53  72 N5        29.95R
$$


USA.gov is the U.S. government's official web portal to all federal, state and local government web resources and services.